NOAA 17 DEB

Satellite information

Favourite Embed

Satellite Type and Status

DEBRISIN ORBIT

Key statistics

Satellite NOAA 17 DEB at a glance.

Uptime

8415

Days in orbit

Revolutions

≈ 13.6

Per day

Orbit

SSO

Sun Synchronous Orbit

Inclination

98.4

Latest

Satellite identification and parameters

Extended collection of information and parameters for NOAA 17 DEB.

Object identification

Identified? True

Debris? True

Object name: NOAA 17 DEB

International designator: 2002-032BC

Object number (NORAD): 48719

Object ID (CCSDS): 48719

Country: UNITED STATES OF AMERICA (US)

Current information (Y/N): Y

RCS size: SMALL

Orbital parameters

Period: 105.511 minutes

Inclination: 98.4102 deg

SMA: 7396.502 km

Apoapsis: 1256.494 km

Periapsis: 780.24 km

RAAN: 301.4311 deg

Eccentricy: 0.0321945

Argument of periapsis: 335.001 deg

Mean anomaly: 23.5835 deg

Mean motion: 13.64781705 rev/day

Mean motion (dot): 0.00000286 rev/day2

B* drag term: 0.00028232 1/REarth

Two-line elements (TLE)

Creation date: July 8, 2025, 2:27 a.m.

Reference frame: TEME

Reference center: EARTH

Epoch: July 7, 2025, 5:45 p.m. UTC

TLE line 0: 0 NOAA 17 DEB

TLE line 1: 1 48719U 02032BC 25188.73991128 .00000286 00000-0 28232-3 0 9996

TLE line 2: 2 48719 98.4102 301.4311 0321945 335.0010 23.5835 13.64781705214380

Live tracking on map

Real-time ground track for satellite NOAA 17 DEB.

In-orbit conjunctions

A list of the most updated potential collisions computed for object NOAA 17 DEB.

Target Orbit TCA Probability of collision Miss distance Type
METEOR 2-6 DEB LEO 2024-11-10 16:25:15 0.0001215685 250.0 (m) DEBRIS

Associated space launch

NOAA M carried weather imagers and microwave and infrared sounders, as well as a SARSAT search-and-rescue package. It had an on-orbit mass of 1475 kg.

NOAA 17 DEB was lifted into orbit during the mission ‘Titan II SLV | NOAA 17’, on board a Titan II SLV space rocket.

The launch took place on June 24, 2002, 6:23 p.m. from Space Launch Complex 4W.

For more information about the launch, click the button.

Launch to space Titan II SLV | NOAA 17
Titan II SLV | NOAA 17

Agency: N/A

Status: Launch Successful

Launch date: June 24, 2002, 6:23 p.m. UTC

Rocket: Titan II SLV

Launch pad: Space Launch Complex 4W

Location: Vandenberg SFB, CA, USA

...

Latest news about this satellite

There are no fresh news available about this satellite. Check back as we update our databases every day.


Newsletter sign-up

Weekly statistics, charts and insights to help you stay on top of the space industry.